EN

Hourly Weather Dziewiecioly

Today, 28 October, Wednesday

Time Temperature Precipitation Wind Pressure Humidity
00:00 +11°C° 0 mm 1 mps 735 mmHg 93%
01:00 +11°C° 0 mm 1 mps 735 mmHg 93%
02:00 +11°C° 0 mm 1 mps 735 mmHg 93%
03:00 +9°C° 0 mm 0 mps 735 mmHg 93%
04:00 +9°C° 0 mm 0 mps 734 mmHg 94%
05:00 +9°C° 0 mm 0 mps 735 mmHg 94%
06:00 +9°C° 0 mm 0 mps 735 mmHg 94%
07:00 +10°C° 0 mm 1 mps 735 mmHg 94%
08:00 +11°C° 0 mm 1 mps 735 mmHg 89%
09:00 +13°C° 0 mm 1 mps 735 mmHg 83%
10:00 +14°C° 0 mm 2 mps 736 mmHg 78%
11:00 +15°C° 0 mm 2 mps 735 mmHg 74%
12:00 +16°C° 0 mm 2 mps 735 mmHg 69%
13:00 +18°C° 0 mm 1 mps 735 mmHg 65%
14:00 +16°C° 0 mm 1 mps 735 mmHg 69%
15:00 +15°C° 0 mm 1 mps 735 mmHg 72%
16:00 +15°C° 0 mm 1 mps 735 mmHg 75%
17:00 +14°C° 0 mm 2 mps 735 mmHg 79%
18:00 +13°C° 0 mm 2 mps 735 mmHg 82%
19:00 +12°C° 0 mm 2 mps 735 mmHg 85%
20:00 +10°C° 0 mm 2 mps 736 mmHg 85%
21:00 +10°C° 0 mm 2 mps 736 mmHg 85%
22:00 +10°C° 0 mm 3 mps 736 mmHg 85%
23:00 +10°C° 0 mm 3 mps 736 mmHg 85%

Tomorrow, 29 October, Thursday

Time Temperature Precipitation Wind Pressure Humidity
00:00 +9°C° 0 mm 3 mps 736 mmHg 85%
01:00 +9°C° 0 mm 3 mps 736 mmHg 84%
02:00 +9°C° 0 mm 3 mps 736 mmHg 85%
03:00 +9°C° 0 mm 3 mps 736 mmHg 86%
04:00 +8°C° 0 mm 2 mps 736 mmHg 87%
05:00 +8°C° 0 mm 2 mps 736 mmHg 85%
06:00 +9°C° 0 mm 3 mps 736 mmHg 83%
07:00 +9°C° 0 mm 3 mps 736 mmHg 81%
08:00 +10°C° 0 mm 3 mps 736 mmHg 74%
09:00 +12°C° 0 mm 4 mps 736 mmHg 67%
10:00 +13°C° 0 mm 4 mps 736 mmHg 60%
11:00 +13°C° 0 mm 5 mps 736 mmHg 61%
12:00 +13°C° 0 mm 5 mps 735 mmHg 62%
13:00 +13°C° 0 mm 6 mps 735 mmHg 63%
14:00 +11°C° 0.1 mm 6 mps 735 mmHg 67%
15:00 +10°C° 0.1 mm 5 mps 735 mmHg 72%
16:00 +10°C° 0.1 mm 5 mps 735 mmHg 76%
17:00 +9°C° 0.3 mm 5 mps 735 mmHg 78%
18:00 +9°C° 0.3 mm 5 mps 735 mmHg 80%
19:00 +9°C° 0.3 mm 6 mps 735 mmHg 82%
20:00 +8°C° 0.1 mm 5 mps 736 mmHg 82%
21:00 +7°C° 0.1 mm 5 mps 736 mmHg 82%
22:00 +6°C° 0.1 mm 5 mps 737 mmHg 81%
23:00 +6°C° 0 mm 5 mps 737 mmHg 83%

Day after tomorrow, 30 October, Friday

Time Temperature Precipitation Wind Pressure Humidity
00:00 +5°C° 0 mm 5 mps 737 mmHg 85%
01:00 +5°C° 0 mm 5 mps 738 mmHg 86%
02:00 +5°C° 0 mm 5 mps 738 mmHg 87%
03:00 +4°C° 0 mm 4 mps 739 mmHg 87%
04:00 +4°C° 0 mm 4 mps 739 mmHg 88%
05:00 +4°C° 0 mm 4 mps 739 mmHg 88%
06:00 +4°C° 0 mm 4 mps 739 mmHg 88%
07:00 +3°C° 0 mm 3 mps 739 mmHg 88%
08:00 +5°C° 0 mm 4 mps 739 mmHg 81%
09:00 +6°C° 0 mm 4 mps 739 mmHg 73%
10:00 +8°C° 0 mm 4 mps 739 mmHg 66%
11:00 +8°C° 0 mm 4 mps 739 mmHg 64%
12:00 +10°C° 0 mm 4 mps 739 mmHg 62%
13:00 +10°C° 0 mm 4 mps 738 mmHg 60%
14:00 +8°C° 0.5 mm 4 mps 738 mmHg 69%
15:00 +8°C° 0.5 mm 3 mps 737 mmHg 78%
16:00 +8°C° 0.5 mm 3 mps 737 mmHg 87%
17:00 +7°C° 1.6 mm 4 mps 737 mmHg 89%
18:00 +7°C° 1.6 mm 4 mps 736 mmHg 91%
19:00 +7°C° 1.6 mm 5 mps 736 mmHg 93%
20:00 +8°C° 1.2 mm 5 mps 736 mmHg 93%
21:00 +9°C° 1.2 mm 6 mps 736 mmHg 93%
22:00 +9°C° 1.2 mm 7 mps 736 mmHg 92%
23:00 +9°C° 1.1 mm 6 mps 736 mmHg 93%

31 October, Saturday

Time Temperature Precipitation Wind Pressure Humidity
00:00 +9°C° 1.1 mm 6 mps 736 mmHg 93%
01:00 +9°C° 1.1 mm 5 mps 736 mmHg 94%
02:00 +10°C° 0.5 mm 4 mps 737 mmHg 93%
03:00 +8°C° 0.5 mm 4 mps 737 mmHg 92%
04:00 +8°C° 0.5 mm 3 mps 738 mmHg 91%
05:00 +8°C° 0 mm 3 mps 738 mmHg 90%
06:00 +7°C° 0 mm 3 mps 739 mmHg 89%
07:00 +7°C° 0 mm 3 mps 740 mmHg 87%
08:00 +7°C° 0 mm 3 mps 740 mmHg 84%
09:00 +8°C° 0 mm 3 mps 741 mmHg 80%
10:00 +8°C° 0 mm 2 mps 742 mmHg 77%
11:00 +9°C° 0 mm 2 mps 742 mmHg 73%
12:00 +9°C° 0 mm 2 mps 742 mmHg 69%
13:00 +11°C° 0 mm 1 mps 742 mmHg 65%
14:00 +10°C° 0 mm 1 mps 742 mmHg 68%
15:00 +10°C° 0 mm 1 mps 742 mmHg 72%
16:00 +9°C° 0 mm 1 mps 742 mmHg 75%
17:00 +8°C° 0 mm 1 mps 743 mmHg 77%
18:00 +8°C° 0 mm 1 mps 743 mmHg 80%
19:00 +7°C° 0 mm 1 mps 743 mmHg 83%
20:00 +7°C° 0 mm 1 mps 743 mmHg 85%
21:00 +5°C° 0 mm 2 mps 743 mmHg 87%
22:00 +5°C° 0 mm 2 mps 743 mmHg 89%
23:00 +5°C° 0 mm 2 mps 743 mmHg 90%

1 November, Sunday

Time Temperature Precipitation Wind Pressure Humidity
00:00 +4°C° 0 mm 2 mps 743 mmHg 91%
01:00 +4°C° 0 mm 2 mps 743 mmHg 91%
02:00 +4°C° 0 mm 2 mps 743 mmHg 91%
03:00 +4°C° 0 mm 2 mps 743 mmHg 91%
04:00 +3°C° 0 mm 2 mps 743 mmHg 91%
05:00 +3°C° 0 mm 2 mps 743 mmHg 90%
06:00 +3°C° 0 mm 2 mps 743 mmHg 89%
07:00 +3°C° 0 mm 2 mps 743 mmHg 89%
08:00 +5°C° 0 mm 2 mps 742 mmHg 81%
09:00 +6°C° 0 mm 2 mps 742 mmHg 74%
10:00 +8°C° 0 mm 2 mps 742 mmHg 67%
11:00 +9°C° 0 mm 2 mps 742 mmHg 63%
12:00 +10°C° 0 mm 2 mps 742 mmHg 60%
13:00 +12°C° 0 mm 2 mps 742 mmHg 56%
14:00 +10°C° 0 mm 2 mps 741 mmHg 60%
15:00 +9°C° 0 mm 2 mps 741 mmHg 65%
16:00 +8°C° 0 mm 2 mps 741 mmHg 69%
17:00 +8°C° 0 mm 2 mps 741 mmHg 71%
18:00 +7°C° 0 mm 2 mps 741 mmHg 73%
19:00 +7°C° 0 mm 2 mps 741 mmHg 75%
20:00 +6°C° 0 mm 2 mps 741 mmHg 74%
21:00 +6°C° 0 mm 2 mps 741 mmHg 73%
22:00 +7°C° 0 mm 1 mps 741 mmHg 71%
23:00 +7°C° 0 mm 1 mps 741 mmHg 71%

2 November, Monday

Time Temperature Precipitation Wind Pressure Humidity
00:00 +7°C° 0 mm 1 mps 741 mmHg 70%
01:00 +7°C° 0 mm 1 mps 741 mmHg 70%
02:00 +7°C° 0 mm 1 mps 741 mmHg 70%
03:00 +6°C° 0 mm 1 mps 740 mmHg 69%
04:00 +6°C° 0 mm 1 mps 740 mmHg 69%
05:00 +6°C° 0 mm 1 mps 740 mmHg 69%
06:00 +6°C° 0 mm 1 mps 741 mmHg 69%
07:00 +7°C° 0 mm 1 mps 741 mmHg 69%
08:00 +7°C° 0 mm 2 mps 741 mmHg 66%
09:00 +9°C° 0 mm 2 mps 741 mmHg 63%
10:00 +12°C° 0 mm 2 mps 741 mmHg 60%
11:00 +13°C° 0 mm 2 mps 741 mmHg 59%
12:00 +14°C° 0 mm 2 mps 741 mmHg 58%
13:00 +15°C° 0 mm 2 mps 741 mmHg 57%
14:00 +14°C° 0 mm 2 mps 741 mmHg 61%
15:00 +13°C° 0 mm 2 mps 741 mmHg 65%
16:00 +12°C° 0 mm 1 mps 740 mmHg 69%
17:00 +11°C° 0 mm 1 mps 741 mmHg 71%
18:00 +11°C° 0 mm 1 mps 741 mmHg 73%
19:00 +10°C° 0 mm 1 mps 741 mmHg 74%
20:00 +10°C° 0 mm 1 mps 741 mmHg 76%
21:00 +10°C° 0 mm 1 mps 741 mmHg 78%
22:00 +10°C° 0 mm 1 mps 741 mmHg 80%
23:00 +10°C° 0 mm 1 mps 741 mmHg 81%
Show more